Location: Fort Hays State University
(38.8712°N, 99.3432°W)
Time: 19:39:13
(UTC-05:00)

Cosmos 2279 Rocket - Visible Passes

Search period start: 22 October 2014 00:00
Search period end: 01 November 2014 00:00
Orbit: 965 x 980 km, 82.9° (Epoch: 21 October)

Date Brightness Start Highest point End Pass type
(mag) Time Alt. Az. Time Alt. Az. Time Alt. Az.
22 Oct 6.8 06:07:18 10° ESE 06:11:16 18° E 06:15:14 10° NE visible
23 Oct 5.9 06:29:52 10° SSE 06:35:18 33° E 06:40:45 10° NNE visible
23 Oct 5.4 19:11:18 10° NNW 19:17:09 45° W 19:22:58 10° SSW visible
24 Oct 4.7 06:53:24 10° S 06:59:30 59° E 07:05:38 10° NNE visible
24 Oct 6.5 19:36:24 10° NNW 19:41:16 25° W 19:46:07 10° SW visible
25 Oct 7.0 05:36:23 10° ESE 05:39:24 14° E 05:42:25 10° NE visible
25 Oct 4.0 07:17:37 10° S 07:23:52 78° W 07:30:08 10° N visible
25 Oct 7.1 20:02:36 10° NW 20:05:14 13° W 20:07:53 10° WSW visible
26 Oct 6.1 05:58:22 10° SE 06:03:23 26° E 06:08:25 10° NNE visible
27 Oct 5.0 06:21:36 10° SSE 06:27:32 48° E 06:33:29 10° NNE visible
27 Oct 6.2 19:04:03 10° NNW 19:09:21 31° W 19:14:38 10° SW visible
28 Oct 7.1 05:06:18 10° E 05:07:34 11° ENE 05:08:50 10° ENE visible
28 Oct 4.1 06:45:35 10° S 06:51:50 86° E 06:58:06 10° N visible
28 Oct 6.8 19:29:41 10° NW 19:33:23 17° W 19:37:05 10° WSW visible
29 Oct 6.4 05:27:01 10° SE 05:31:30 21° E 05:35:58 10° NE visible
29 Oct 4.1 07:10:12 10° SSW 07:16:17 54° W 07:22:24 10° N visible
30 Oct 5.4 05:49:54 10° SSE 05:55:35 38° E 06:01:16 10° NNE visible
31 Oct 4.3 06:13:38 10° S 06:19:49 70° E 06:26:02 10° NNE visible
